Weather in Vadimovka

Russia / Primorsky Krai     44°24′18″N   132°23′03″E
temp.,
°C
wind,
m/s
gust,
m/s
humid.,
%
clouds,
%
prec.,
mm/h
press.,
hPa
HPBL,
m
21 april, wed
wed2101:00+5wsw11400 0.0 102010
04:00+4wsw11395 0.0 102110
07:00+4sse22385 0.0 102210
10:00+10sw22290 0.0 1023356
13:00+13nw12230 0.0 1022789
16:00+16ne01210 0.0 1020832
19:00+16ese34271 0.0 1020127
22:00+12se23330 0.0 102117
22 april, thu
thu2201:00+11sse33385 0.0 102219
04:00+9s33425 0.0 102121
07:00+9s224649 0.0 102219
10:00+15s2434100 0.0 1022310
13:00+19ssw3432100 0.0 1021682
16:00+21sw673591 0.0 1020917
19:00+15sw71342100 0.0 1021397
22:00+10sw71543100 0.0 1023374
23 april, fri
fri2301:00+8ssw71548100 0.0 1025404
04:00+7ssw61450100 0.0 1025385
07:00+7ssw51154100 0.0 1025269
10:00+11ssw61042100 0.0 1025425
13:00+16sw6839100 0.0 1024661
16:00+17sw4538100 0.0 1022732
19:00+16ssw3447100 0.0 1022129
22:00+12wnw2355100 0.0 102346
24 april, sat
sat2401:00+9n2270100 0.0 102345
04:00+9n3684100 0.0 1022138
07:00+7nne61081100 0.1 1023332
10:00+5n61078100 0.2 1025503
13:00+3n4877100 0.4 1025611
16:00+7nnw1547100 0.6 1022485
19:00+7n38370 0.0 1021405
22:00+4wnw22420 0.0 102114
25 april, sun
sun2501:00+3n22570 0.0 102231
04:00+2sw33520 0.0 102024
07:00+3w413504 0.0 1020295
10:00+6n813460 0.0 10211318
13:00+7n813320 0.0 10221651
16:00+8n712270 0.0 10211544
19:00+7n49340 0.0 1021647
22:00+4nne22410 0.0 102318